<?xml version="1.0" encoding="UTF-8" standalone="no" ?>
<gpx xmlns="http://www.topografix.com/GPX/1/1" creator="MapSource 6.11.6" version="1.1" xmlns:xsi="http://www.w3.org/2001/XMLSchema-instance" xsi:schemaLocation="http://www.topografix.com/GPX/1/1 http://www.topografix.com/GPX/1/1/gpx.xsd">

  <metadata>
    <link href="http://www.garmin.com">
      <text>Garmin International</text>
    </link>
    <time>2010-01-30T11:35:53Z</time>
    <bounds maxlat="50.670289" maxlon="6.365933" minlat="50.665312" minlon="6.353257"/>
  </metadata>

  <trk>
    <name>Rundwanderweg Simonskall</name>
    <extensions>
      <gpxx:TrackExtension xmlns:gpxx="http://www.garmin.com/xmlschemas/GpxExtensions/v3" xmlns:xsi="http://www.w3.org/2001/XMLSchema-instance" xsi:schemaLocation="http://www.garmin.com/xmlschemas/GpxExtensions/v3 http://www.garmin.com/xmlschemas/GpxExtensions/v3/GpxExtensionsv3.xsd">
        <gpxx:DisplayColor>White</gpxx:DisplayColor>
      </gpxx:TrackExtension>
    </extensions>
    <trkseg>
      <trkpt lat="50.667277" lon="6.355170">
        <ele>0.000000</ele>
        <time>2009-11-11T18:18:55Z</time>
      </trkpt>
      <trkpt lat="50.667584" lon="6.354872">
        <ele>0.000000</ele>
        <time>2009-11-11T18:18:55Z</time>
      </trkpt>
      <trkpt lat="50.667535" lon="6.354759">
        <ele>0.000000</ele>
        <time>2009-11-11T18:18:55Z</time>
      </trkpt>
      <trkpt lat="50.667437" lon="6.354566">
        <ele>0.000000</ele>
        <time>2009-11-11T18:18:55Z</time>
      </trkpt>
      <trkpt lat="50.667382" lon="6.354443">
        <ele>0.000000</ele>
        <time>2009-11-11T18:18:55Z</time>
      </trkpt>
      <trkpt lat="50.667314" lon="6.354298">
        <ele>0.000000</ele>
        <time>2009-11-11T18:18:55Z</time>
      </trkpt>
      <trkpt lat="50.667253" lon="6.354169">
        <ele>0.000000</ele>
        <time>2009-11-11T18:18:55Z</time>
      </trkpt>
      <trkpt lat="50.667076" lon="6.353772">
        <ele>0.000000</ele>
        <time>2009-11-11T18:18:55Z</time>
      </trkpt>
      <trkpt lat="50.666927" lon="6.353467">
        <ele>0.000000</ele>
        <time>2009-11-11T18:18:55Z</time>
      </trkpt>
      <trkpt lat="50.666879" lon="6.353348">
        <ele>0.000000</ele>
        <time>2009-11-11T18:18:55Z</time>
      </trkpt>
      <trkpt lat="50.666869" lon="6.353257">
        <ele>0.000000</ele>
        <time>2009-11-11T18:18:55Z</time>
      </trkpt>
      <trkpt lat="50.666675" lon="6.353332">
        <ele>0.000000</ele>
        <time>2009-11-11T18:18:55Z</time>
      </trkpt>
      <trkpt lat="50.666417" lon="6.353445">
        <ele>0.000000</ele>
        <time>2009-11-11T18:18:55Z</time>
      </trkpt>
      <trkpt lat="50.666141" lon="6.353552">
        <ele>0.000000</ele>
        <time>2009-11-11T18:18:55Z</time>
      </trkpt>
      <trkpt lat="50.666199" lon="6.353724">
        <ele>0.000000</ele>
        <time>2009-11-11T18:18:55Z</time>
      </trkpt>
      <trkpt lat="50.666247" lon="6.353917">
        <ele>0.000000</ele>
        <time>2009-11-11T18:18:55Z</time>
      </trkpt>
      <trkpt lat="50.666294" lon="6.354153">
        <ele>0.000000</ele>
        <time>2009-11-11T18:18:55Z</time>
      </trkpt>
      <trkpt lat="50.666328" lon="6.354539">
        <ele>0.000000</ele>
        <time>2009-11-11T18:18:55Z</time>
      </trkpt>
      <trkpt lat="50.666349" lon="6.354754">
        <ele>0.000000</ele>
        <time>2009-11-11T18:18:55Z</time>
      </trkpt>
      <trkpt lat="50.666366" lon="6.354942">
        <ele>0.000000</ele>
        <time>2009-11-11T18:18:55Z</time>
      </trkpt>
      <trkpt lat="50.666378" lon="6.355143">
        <ele>0.000000</ele>
        <time>2009-11-11T18:18:55Z</time>
      </trkpt>
      <trkpt lat="50.666410" lon="6.355451">
        <ele>0.000000</ele>
        <time>2009-11-11T18:18:55Z</time>
      </trkpt>
      <trkpt lat="50.666425" lon="6.355605">
        <ele>0.000000</ele>
        <time>2009-11-11T18:18:55Z</time>
      </trkpt>
      <trkpt lat="50.666468" lon="6.356176">
        <ele>0.000000</ele>
        <time>2009-11-11T18:18:55Z</time>
      </trkpt>
      <trkpt lat="50.666502" lon="6.356658">
        <ele>0.000000</ele>
        <time>2009-11-11T18:18:55Z</time>
      </trkpt>
      <trkpt lat="50.666498" lon="6.356733">
        <ele>0.000000</ele>
        <time>2009-11-11T18:18:55Z</time>
      </trkpt>
      <trkpt lat="50.666492" lon="6.357104">
        <ele>0.000000</ele>
        <time>2009-11-11T18:18:55Z</time>
      </trkpt>
      <trkpt lat="50.666434" lon="6.357543">
        <ele>0.000000</ele>
        <time>2009-11-11T18:18:55Z</time>
      </trkpt>
      <trkpt lat="50.666405" lon="6.357688">
        <ele>0.000000</ele>
        <time>2009-11-11T18:18:55Z</time>
      </trkpt>
      <trkpt lat="50.666391" lon="6.357830">
        <ele>0.000000</ele>
        <time>2009-11-11T18:18:55Z</time>
      </trkpt>
      <trkpt lat="50.666392" lon="6.357988">
        <ele>0.000000</ele>
        <time>2009-11-11T18:18:55Z</time>
      </trkpt>
      <trkpt lat="50.666393" lon="6.358101">
        <ele>0.000000</ele>
        <time>2009-11-11T18:18:55Z</time>
      </trkpt>
      <trkpt lat="50.666339" lon="6.358214">
        <ele>0.000000</ele>
        <time>2009-11-11T18:18:55Z</time>
      </trkpt>
      <trkpt lat="50.666152" lon="6.358300">
        <ele>0.000000</ele>
        <time>2009-11-11T18:18:55Z</time>
      </trkpt>
      <trkpt lat="50.666012" lon="6.358375">
        <ele>0.000000</ele>
        <time>2009-11-11T18:18:55Z</time>
      </trkpt>
      <trkpt lat="50.665876" lon="6.358364">
        <ele>0.000000</ele>
        <time>2009-11-11T18:18:55Z</time>
      </trkpt>
      <trkpt lat="50.665791" lon="6.358338">
        <ele>0.000000</ele>
        <time>2009-11-11T18:18:55Z</time>
      </trkpt>
      <trkpt lat="50.665684" lon="6.358328">
        <ele>0.000000</ele>
        <time>2009-11-11T18:18:55Z</time>
      </trkpt>
      <trkpt lat="50.665610" lon="6.358328">
        <ele>0.000000</ele>
        <time>2009-11-11T18:18:55Z</time>
      </trkpt>
      <trkpt lat="50.665516" lon="6.358353">
        <ele>0.000000</ele>
        <time>2009-11-11T18:18:55Z</time>
      </trkpt>
      <trkpt lat="50.665400" lon="6.358434">
        <ele>0.000000</ele>
        <time>2009-11-11T18:18:55Z</time>
      </trkpt>
      <trkpt lat="50.665322" lon="6.358511">
        <ele>0.000000</ele>
        <time>2009-11-11T18:18:55Z</time>
      </trkpt>
      <trkpt lat="50.665312" lon="6.358616">
        <ele>0.000000</ele>
        <time>2009-11-11T18:18:55Z</time>
      </trkpt>
      <trkpt lat="50.665332" lon="6.358734">
        <ele>0.000000</ele>
        <time>2009-11-11T18:18:55Z</time>
      </trkpt>
      <trkpt lat="50.665386" lon="6.358895">
        <ele>0.000000</ele>
        <time>2009-11-11T18:18:55Z</time>
      </trkpt>
      <trkpt lat="50.665434" lon="6.359013">
        <ele>0.000000</ele>
        <time>2009-11-11T18:18:55Z</time>
      </trkpt>
      <trkpt lat="50.665529" lon="6.359083">
        <ele>0.000000</ele>
        <time>2009-11-11T18:18:55Z</time>
      </trkpt>
      <trkpt lat="50.665638" lon="6.359223">
        <ele>0.000000</ele>
        <time>2009-11-11T18:18:55Z</time>
      </trkpt>
      <trkpt lat="50.665791" lon="6.359362">
        <ele>0.000000</ele>
        <time>2009-11-11T18:18:55Z</time>
      </trkpt>
      <trkpt lat="50.665890" lon="6.359367">
        <ele>0.000000</ele>
        <time>2009-11-11T18:18:55Z</time>
      </trkpt>
      <trkpt lat="50.666012" lon="6.359373">
        <ele>0.000000</ele>
        <time>2009-11-11T18:18:55Z</time>
      </trkpt>
      <trkpt lat="50.666102" lon="6.359367">
        <ele>0.000000</ele>
        <time>2009-11-11T18:18:55Z</time>
      </trkpt>
      <trkpt lat="50.666250" lon="6.359383">
        <ele>0.000000</ele>
        <time>2009-11-11T18:18:55Z</time>
      </trkpt>
      <trkpt lat="50.666495" lon="6.359389">
        <ele>0.000000</ele>
        <time>2009-11-11T18:18:55Z</time>
      </trkpt>
      <trkpt lat="50.666713" lon="6.359394">
        <ele>0.000000</ele>
        <time>2009-11-11T18:18:55Z</time>
      </trkpt>
      <trkpt lat="50.666919" lon="6.359335">
        <ele>0.000000</ele>
        <time>2009-11-11T18:18:55Z</time>
      </trkpt>
      <trkpt lat="50.667022" lon="6.359314">
        <ele>0.000000</ele>
        <time>2009-11-11T18:18:55Z</time>
      </trkpt>
      <trkpt lat="50.667127" lon="6.359303">
        <ele>0.000000</ele>
        <time>2009-11-11T18:18:55Z</time>
      </trkpt>
      <trkpt lat="50.667219" lon="6.359312">
        <ele>0.000000</ele>
        <time>2009-11-11T18:18:55Z</time>
      </trkpt>
      <trkpt lat="50.667321" lon="6.359330">
        <ele>0.000000</ele>
        <time>2009-11-11T18:18:55Z</time>
      </trkpt>
      <trkpt lat="50.667413" lon="6.359383">
        <ele>0.000000</ele>
        <time>2009-11-11T18:18:55Z</time>
      </trkpt>
      <trkpt lat="50.667494" lon="6.359405">
        <ele>0.000000</ele>
        <time>2009-11-11T18:18:55Z</time>
      </trkpt>
      <trkpt lat="50.667746" lon="6.359534">
        <ele>0.000000</ele>
        <time>2009-11-11T18:18:55Z</time>
      </trkpt>
      <trkpt lat="50.667838" lon="6.359571">
        <ele>0.000000</ele>
        <time>2009-11-11T18:18:55Z</time>
      </trkpt>
      <trkpt lat="50.667981" lon="6.359716">
        <ele>0.000000</ele>
        <time>2009-11-11T18:18:55Z</time>
      </trkpt>
      <trkpt lat="50.668045" lon="6.359797">
        <ele>0.000000</ele>
        <time>2009-11-11T18:18:55Z</time>
      </trkpt>
      <trkpt lat="50.668147" lon="6.360000">
        <ele>0.000000</ele>
        <time>2009-11-11T18:18:55Z</time>
      </trkpt>
      <trkpt lat="50.668311" lon="6.360285">
        <ele>0.000000</ele>
        <time>2009-11-11T18:18:55Z</time>
      </trkpt>
      <trkpt lat="50.668419" lon="6.360489">
        <ele>0.000000</ele>
        <time>2009-11-11T18:18:55Z</time>
      </trkpt>
      <trkpt lat="50.668487" lon="6.360607">
        <ele>0.000000</ele>
        <time>2009-11-11T18:18:55Z</time>
      </trkpt>
      <trkpt lat="50.668548" lon="6.360707">
        <ele>0.000000</ele>
        <time>2009-11-11T18:18:55Z</time>
      </trkpt>
      <trkpt lat="50.668630" lon="6.360859">
        <ele>0.000000</ele>
        <time>2009-11-11T18:18:55Z</time>
      </trkpt>
      <trkpt lat="50.668739" lon="6.361105">
        <ele>0.000000</ele>
        <time>2009-11-11T18:18:55Z</time>
      </trkpt>
      <trkpt lat="50.668810" lon="6.361299">
        <ele>0.000000</ele>
        <time>2009-11-11T18:18:55Z</time>
      </trkpt>
      <trkpt lat="50.668865" lon="6.361427">
        <ele>0.000000</ele>
        <time>2009-11-11T18:18:55Z</time>
      </trkpt>
      <trkpt lat="50.668929" lon="6.361583">
        <ele>0.000000</ele>
        <time>2009-11-11T18:18:55Z</time>
      </trkpt>
      <trkpt lat="50.668977" lon="6.361712">
        <ele>0.000000</ele>
        <time>2009-11-11T18:18:55Z</time>
      </trkpt>
      <trkpt lat="50.669045" lon="6.361878">
        <ele>0.000000</ele>
        <time>2009-11-11T18:18:55Z</time>
      </trkpt>
      <trkpt lat="50.669099" lon="6.361991">
        <ele>0.000000</ele>
        <time>2009-11-11T18:18:55Z</time>
      </trkpt>
      <trkpt lat="50.669184" lon="6.362152">
        <ele>0.000000</ele>
        <time>2009-11-11T18:18:55Z</time>
      </trkpt>
      <trkpt lat="50.669239" lon="6.362264">
        <ele>0.000000</ele>
        <time>2009-11-11T18:18:55Z</time>
      </trkpt>
      <trkpt lat="50.669290" lon="6.362361">
        <ele>0.000000</ele>
        <time>2009-11-11T18:18:55Z</time>
      </trkpt>
      <trkpt lat="50.669347" lon="6.362489">
        <ele>0.000000</ele>
        <time>2009-11-11T18:18:55Z</time>
      </trkpt>
      <trkpt lat="50.669402" lon="6.362618">
        <ele>0.000000</ele>
        <time>2009-11-11T18:18:55Z</time>
      </trkpt>
      <trkpt lat="50.669450" lon="6.362751">
        <ele>0.000000</ele>
        <time>2009-11-11T18:18:55Z</time>
      </trkpt>
      <trkpt lat="50.669480" lon="6.362806">
        <ele>0.000000</ele>
        <time>2009-11-11T18:18:55Z</time>
      </trkpt>
      <trkpt lat="50.669480" lon="6.363122">
        <ele>0.000000</ele>
        <time>2009-11-11T18:18:55Z</time>
      </trkpt>
      <trkpt lat="50.669466" lon="6.363230">
        <ele>0.000000</ele>
        <time>2009-11-11T18:18:55Z</time>
      </trkpt>
      <trkpt lat="50.669419" lon="6.363401">
        <ele>0.000000</ele>
        <time>2009-11-11T18:18:55Z</time>
      </trkpt>
      <trkpt lat="50.669371" lon="6.363595">
        <ele>0.000000</ele>
        <time>2009-11-11T18:18:55Z</time>
      </trkpt>
      <trkpt lat="50.669343" lon="6.363720">
        <ele>0.000000</ele>
        <time>2009-11-11T18:18:55Z</time>
      </trkpt>
      <trkpt lat="50.669334" lon="6.363831">
        <ele>0.000000</ele>
        <time>2009-11-11T18:18:55Z</time>
      </trkpt>
      <trkpt lat="50.669335" lon="6.363967">
        <ele>0.000000</ele>
        <time>2009-11-11T18:18:55Z</time>
      </trkpt>
      <trkpt lat="50.669347" lon="6.364142">
        <ele>0.000000</ele>
        <time>2009-11-11T18:18:55Z</time>
      </trkpt>
      <trkpt lat="50.669371" lon="6.364335">
        <ele>0.000000</ele>
        <time>2009-11-11T18:18:55Z</time>
      </trkpt>
      <trkpt lat="50.669399" lon="6.364533">
        <ele>0.000000</ele>
        <time>2009-11-11T18:18:55Z</time>
      </trkpt>
      <trkpt lat="50.669409" lon="6.364678">
        <ele>0.000000</ele>
        <time>2009-11-11T18:18:55Z</time>
      </trkpt>
      <trkpt lat="50.669414" lon="6.364781">
        <ele>0.000000</ele>
        <time>2009-11-11T18:18:55Z</time>
      </trkpt>
      <trkpt lat="50.669426" lon="6.364952">
        <ele>0.000000</ele>
        <time>2009-11-11T18:18:55Z</time>
      </trkpt>
      <trkpt lat="50.669419" lon="6.365156">
        <ele>0.000000</ele>
        <time>2009-11-11T18:18:55Z</time>
      </trkpt>
      <trkpt lat="50.669416" lon="6.365322">
        <ele>0.000000</ele>
        <time>2009-11-11T18:18:55Z</time>
      </trkpt>
      <trkpt lat="50.669416" lon="6.365456">
        <ele>0.000000</ele>
        <time>2009-11-11T18:18:55Z</time>
      </trkpt>
      <trkpt lat="50.669416" lon="6.365596">
        <ele>0.000000</ele>
        <time>2009-11-11T18:18:55Z</time>
      </trkpt>
      <trkpt lat="50.669419" lon="6.365831">
        <ele>0.000000</ele>
        <time>2009-11-11T18:18:55Z</time>
      </trkpt>
      <trkpt lat="50.669517" lon="6.365933">
        <ele>0.000000</ele>
        <time>2009-11-11T18:18:55Z</time>
      </trkpt>
      <trkpt lat="50.669636" lon="6.365917">
        <ele>0.000000</ele>
        <time>2009-11-11T18:18:55Z</time>
      </trkpt>
      <trkpt lat="50.669756" lon="6.365794">
        <ele>0.000000</ele>
        <time>2009-11-11T18:18:55Z</time>
      </trkpt>
      <trkpt lat="50.669844" lon="6.365703">
        <ele>0.000000</ele>
        <time>2009-11-11T18:18:55Z</time>
      </trkpt>
      <trkpt lat="50.669960" lon="6.365552">
        <ele>0.000000</ele>
        <time>2009-11-11T18:18:55Z</time>
      </trkpt>
      <trkpt lat="50.670004" lon="6.365477">
        <ele>0.000000</ele>
        <time>2009-11-11T18:18:55Z</time>
      </trkpt>
      <trkpt lat="50.670123" lon="6.365225">
        <ele>0.000000</ele>
        <time>2009-11-11T18:18:55Z</time>
      </trkpt>
      <trkpt lat="50.670170" lon="6.365043">
        <ele>0.000000</ele>
        <time>2009-11-11T18:18:55Z</time>
      </trkpt>
      <trkpt lat="50.670174" lon="6.364877">
        <ele>0.000000</ele>
        <time>2009-11-11T18:18:55Z</time>
      </trkpt>
      <trkpt lat="50.670147" lon="6.364769">
        <ele>0.000000</ele>
        <time>2009-11-11T18:18:55Z</time>
      </trkpt>
      <trkpt lat="50.670133" lon="6.364598">
        <ele>0.000000</ele>
        <time>2009-11-11T18:18:55Z</time>
      </trkpt>
      <trkpt lat="50.670112" lon="6.364485">
        <ele>0.000000</ele>
        <time>2009-11-11T18:18:55Z</time>
      </trkpt>
      <trkpt lat="50.670095" lon="6.364313">
        <ele>0.000000</ele>
        <time>2009-11-11T18:18:55Z</time>
      </trkpt>
      <trkpt lat="50.670062" lon="6.364136">
        <ele>0.000000</ele>
        <time>2009-11-11T18:18:55Z</time>
      </trkpt>
      <trkpt lat="50.670028" lon="6.363922">
        <ele>0.000000</ele>
        <time>2009-11-11T18:18:55Z</time>
      </trkpt>
      <trkpt lat="50.670021" lon="6.363552">
        <ele>0.000000</ele>
        <time>2009-11-11T18:18:55Z</time>
      </trkpt>
      <trkpt lat="50.670065" lon="6.363385">
        <ele>0.000000</ele>
        <time>2009-11-11T18:18:55Z</time>
      </trkpt>
      <trkpt lat="50.670099" lon="6.363278">
        <ele>0.000000</ele>
        <time>2009-11-11T18:18:55Z</time>
      </trkpt>
      <trkpt lat="50.670147" lon="6.363181">
        <ele>0.000000</ele>
        <time>2009-11-11T18:18:55Z</time>
      </trkpt>
      <trkpt lat="50.670204" lon="6.363101">
        <ele>0.000000</ele>
        <time>2009-11-11T18:18:55Z</time>
      </trkpt>
      <trkpt lat="50.670289" lon="6.363015">
        <ele>0.000000</ele>
        <time>2009-11-11T18:18:55Z</time>
      </trkpt>
      <trkpt lat="50.670221" lon="6.362897">
        <ele>0.000000</ele>
        <time>2009-11-11T18:18:55Z</time>
      </trkpt>
      <trkpt lat="50.670068" lon="6.362704">
        <ele>0.000000</ele>
        <time>2009-11-11T18:18:55Z</time>
      </trkpt>
      <trkpt lat="50.669847" lon="6.362382">
        <ele>0.000000</ele>
        <time>2009-11-11T18:18:55Z</time>
      </trkpt>
      <trkpt lat="50.669776" lon="6.362194">
        <ele>0.000000</ele>
        <time>2009-11-11T18:18:55Z</time>
      </trkpt>
      <trkpt lat="50.669671" lon="6.361819">
        <ele>0.000000</ele>
        <time>2009-11-11T18:18:55Z</time>
      </trkpt>
      <trkpt lat="50.669636" lon="6.361572">
        <ele>0.000000</ele>
        <time>2009-11-11T18:18:55Z</time>
      </trkpt>
      <trkpt lat="50.669609" lon="6.361352">
        <ele>0.000000</ele>
        <time>2009-11-11T18:18:55Z</time>
      </trkpt>
      <trkpt lat="50.669606" lon="6.361068">
        <ele>0.000000</ele>
        <time>2009-11-11T18:18:55Z</time>
      </trkpt>
      <trkpt lat="50.669609" lon="6.360682">
        <ele>0.000000</ele>
        <time>2009-11-11T18:18:55Z</time>
      </trkpt>
      <trkpt lat="50.669606" lon="6.360558">
        <ele>0.000000</ele>
        <time>2009-11-11T18:18:55Z</time>
      </trkpt>
      <trkpt lat="50.669603" lon="6.360456">
        <ele>0.000000</ele>
        <time>2009-11-11T18:18:55Z</time>
      </trkpt>
      <trkpt lat="50.669589" lon="6.360328">
        <ele>0.000000</ele>
        <time>2009-11-11T18:18:55Z</time>
      </trkpt>
      <trkpt lat="50.669558" lon="6.360151">
        <ele>0.000000</ele>
        <time>2009-11-11T18:18:55Z</time>
      </trkpt>
      <trkpt lat="50.669504" lon="6.360006">
        <ele>0.000000</ele>
        <time>2009-11-11T18:18:55Z</time>
      </trkpt>
      <trkpt lat="50.669449" lon="6.359834">
        <ele>0.000000</ele>
        <time>2009-11-11T18:18:55Z</time>
      </trkpt>
      <trkpt lat="50.669382" lon="6.359646">
        <ele>0.000000</ele>
        <time>2009-11-11T18:18:55Z</time>
      </trkpt>
      <trkpt lat="50.669320" lon="6.359459">
        <ele>0.000000</ele>
        <time>2009-11-11T18:18:55Z</time>
      </trkpt>
      <trkpt lat="50.669290" lon="6.359292">
        <ele>0.000000</ele>
        <time>2009-11-11T18:18:55Z</time>
      </trkpt>
      <trkpt lat="50.669269" lon="6.359158">
        <ele>0.000000</ele>
        <time>2009-11-11T18:18:55Z</time>
      </trkpt>
      <trkpt lat="50.669133" lon="6.358477">
        <ele>0.000000</ele>
        <time>2009-11-11T18:18:55Z</time>
      </trkpt>
      <trkpt lat="50.669075" lon="6.358321">
        <ele>0.000000</ele>
        <time>2009-11-11T18:18:55Z</time>
      </trkpt>
      <trkpt lat="50.668912" lon="6.357844">
        <ele>0.000000</ele>
        <time>2009-11-11T18:18:55Z</time>
      </trkpt>
      <trkpt lat="50.668807" lon="6.357538">
        <ele>0.000000</ele>
        <time>2009-11-11T18:18:55Z</time>
      </trkpt>
      <trkpt lat="50.668729" lon="6.357313">
        <ele>0.000000</ele>
        <time>2009-11-11T18:18:55Z</time>
      </trkpt>
      <trkpt lat="50.668603" lon="6.357023">
        <ele>0.000000</ele>
        <time>2009-11-11T18:18:55Z</time>
      </trkpt>
      <trkpt lat="50.668511" lon="6.356819">
        <ele>0.000000</ele>
        <time>2009-11-11T18:18:55Z</time>
      </trkpt>
      <trkpt lat="50.668392" lon="6.356621">
        <ele>0.000000</ele>
        <time>2009-11-11T18:18:55Z</time>
      </trkpt>
      <trkpt lat="50.668300" lon="6.356487">
        <ele>0.000000</ele>
        <time>2009-11-11T18:18:55Z</time>
      </trkpt>
      <trkpt lat="50.668164" lon="6.356288">
        <ele>0.000000</ele>
        <time>2009-11-11T18:18:55Z</time>
      </trkpt>
      <trkpt lat="50.668073" lon="6.356176">
        <ele>0.000000</ele>
        <time>2009-11-11T18:18:55Z</time>
      </trkpt>
      <trkpt lat="50.668008" lon="6.356020">
        <ele>0.000000</ele>
        <time>2009-11-11T18:18:55Z</time>
      </trkpt>
      <trkpt lat="50.667936" lon="6.355870">
        <ele>0.000000</ele>
        <time>2009-11-11T18:18:55Z</time>
      </trkpt>
      <trkpt lat="50.667882" lon="6.355725">
        <ele>0.000000</ele>
        <time>2009-11-11T18:18:55Z</time>
      </trkpt>
      <trkpt lat="50.667733" lon="6.355344">
        <ele>0.000000</ele>
        <time>2009-11-11T18:18:55Z</time>
      </trkpt>
      <trkpt lat="50.667661" lon="6.355172">
        <ele>0.000000</ele>
        <time>2009-11-11T18:18:55Z</time>
      </trkpt>
      <trkpt lat="50.667603" lon="6.354990">
        <ele>0.000000</ele>
        <time>2009-11-11T18:18:55Z</time>
      </trkpt>
      <trkpt lat="50.667507" lon="6.355087">
        <ele>0.000000</ele>
        <time>2009-11-11T18:18:55Z</time>
      </trkpt>
      <trkpt lat="50.667393" lon="6.355174">
        <ele>0.000000</ele>
        <time>2009-11-11T18:18:55Z</time>
      </trkpt>
      <trkpt lat="50.667314" lon="6.355246">
        <ele>0.000000</ele>
        <time>2009-11-11T18:18:55Z</time>
      </trkpt>
    </trkseg>
  </trk>

</gpx>
